Location: Poughquag
(41.6090°N, 73.6820°W)
Time: 10:25:08
(UTC-05:00)

Vanguard 1 - Pass Details

Date: 29 November 2023
Orbit: 653 x 3826 km, 34.3° (Epoch: 25 February)

Event Time Altitude Azimuth Distance (km) Brightness Sun altitude
Rises 01:40:35 0° 284° (WNW) 7,973 - -58.1°
Reaches altitude 10° 01:46:55 10° 278° (W) 6,865 - -57.1°
Maximum altitude 02:05:04 35° 223° (SW) 4,236 - -54.0°
Drops below altitude 10° 02:17:39 10° 164° (SSE) 4,751 - -51.8°
Exits shadow 02:18:05 - 163° (SSE) 4,816 13.5 -51.7°
Sets 02:21:07 0° 155° (SSE) 5,353 13.9 -51.2°
